Theta_e
327 323 316 308 292 291 291 296 303 304 306 319 326 325 323 328 324 319 346 352 353 356 362 360 362 362 361 359 360 359 359 360 361 360 360 360 360 359 359 359 360 359 356 355 355 354 352 349 345
325 323 317 303 288 283 288 299 301 305 310 328 330 327 327 327 339 337 342 352 353 356 360 358 362 362 361 360 360 359 360 360 360 360 360 360 360 359 358 360 360 358 356 356 354 352 348 346 344
320 322 307 299 286 284 286 297 301 305 309 321 325 333 332 332 341 343 348 351 354 354 359 360 363 361 359 360 360 359 360 359 360 359 359 360 360 359 360 360 360 358 356 355 352 349 345 344 345
311 307 303 292 288 290 291 294 297 299 302 305 322 329 337 341 344 344 349 351 351 353 358 360 362 360 359 360 360 360 360 360 360 359 359 359 359 359 360 360 360 359 356 353 349 346 346 347 349
307 302 292 288 291 292 297 298 298 298 300 302 304 315 331 338 345 344 346 348 347 353 358 357 361 360 359 360 360 360 360 359 359 360 359 358 359 360 360 360 359 357 354 350 348 348 348 348 349
298 298 288 289 292 295 296 300 300 301 303 303 319 331 328 335 337 341 347 345 350 353 357 358 360 360 359 360 360 359 359 359 359 359 359 359 360 359 359 357 357 356 354 352 350 349 348 347 348
293 291 287 289 292 295 297 301 299 300 301 302 310 328 332 331 337 344 343 348 351 354 355 355 356 358 360 359 359 358 358 358 358 357 358 358 359 358 357 356 355 354 351 350 349 348 348 348 349
296 292 288 290 292 292 300 302 302 300 303 309 311 327 327 330 340 342 345 349 351 352 353 350 355 356 354 355 359 358 358 358 357 357 357 357 357 356 356 353 353 352 351 349 348 349 349 350 351
298 288 284 288 291 294 300 299 305 308 305 307 309 316 339 337 343 338 343 345 348 350 348 350 351 352 351 352 355 357 357 357 357 357 357 353 348 349 349 350 350 352 350 350 349 350 350 351 352
293 286 289 295 296 296 300 301 303 303 303 304 307 336 342 341 338 338 338 339 342 345 349 350 349 349 351 352 351 350 351 352 351 350 349 345 342 342 344 346 351 351 351 351 351 351 352 352 347
292 290 295 297 299 300 300 301 304 301 300 302 303 308 339 338 336 337 336 339 339 344 347 349 349 350 348 350 349 348 348 348 347 345 344 339 337 336 340 335 338 340 345 341 341 341 342 343 345
291 296 296 297 300 298 297 301 300 301 302 306 307 308 324 334 335 335 335 337 337 341 345 347 348 347 347 348 345 345 343 341 338 338 339 335 332 333 332 334 336 335 333 332 335 341 343 344 340
294 297 300 301 300 296 299 298 299 300 305 308 308 309 317 338 334 336 336 337 336 336 340 342 344 344 345 343 341 341 339 337 336 334 336 333 332 334 334 334 335 334 335 337 341 344 343 337 331
297 296 296 298 298 298 297 298 298 301 305 306 307 307 311 332 337 336 335 334 334 334 336 338 339 339 343 340 339 339 337 336 335 335 337 335 334 337 334 333 334 337 344 344 342 339 333 321 320
296 290 293 295 297 297 299 294 296 302 303 303 305 306 308 320 326 335 336 334 334 334 336 335 336 336 339 337 337 337 337 338 336 339 339 337 339 337 336 332 333 343 343 333 325 323 320 319 319
291 288 284 291 297 298 296 288 298 301 299 301 304 306 308 308 322 325 339 335 335 335 335 336 336 336 335 333 336 336 337 338 338 342 342 341 343 341 337 339 344 345 336 324 322 321 318 318 318
285 281 284 288 295 295 293 290 297 301 300 299 301 303 306 307 316 336 340 337 335 335 335 334 336 335 332 329 334 336 337 336 339 343 343 341 344 341 337 344 338 331 327 324 322 320 319 318 317
283 285 287 287 290 292 290 291 296 299 300 300 300 302 304 306 308 336 341 339 335 335 336 335 338 335 334 330 337 336 339 336 339 341 342 339 340 345 345 342 333 328 324 322 321 319 321 317 316
292 291 289 292 293 290 290 290 293 296 297 298 299 301 301 304 308 334 338 340 340 336 335 335 339 339 338 335 341 339 339 340 339 340 340 336 339 346 342 335 331 326 324 323 323 322 318 315 317
295 291 290 293 294 291 291 290 294 296 296 298 300 301 301 302 315 331 338 336 339 339 335 339 341 344 341 345 344 343 342 340 338 338 336 337 344 343 338 330 326 324 324 323 321 322 319 315 317
293 290 289 290 294 295 292 289 291 295 297 300 301 303 304 302 319 327 334 333 340 339 332 330 335 344 345 344 343 340 345 344 340 340 342 343 345 342 336 331 328 326 324 319 318 317 314 313 315
289 296 293 292 290 283 291 280 288 292 295 298 300 300 302 304 322 323 328 325 334 338 337 333 329 339 345 345 342 341 337 337 340 342 342 340 341 338 335 332 328 324 322 319 319 319 318 313 310
292 297 295 294 290 287 287 284 286 292 292 296 299 299 299 303 319 320 323 328 331 334 331 333 328 328 342 341 341 339 339 343 344 342 338 335 335 335 332 327 325 324 323 321 318 316 314 313 311
300 296 294 293 288 281 286 284 283 288 292 295 297 299 300 302 315 323 327 331 327 327 327 326 324 331 326 339 336 337 342 342 340 338 336 335 329 327 326 325 323 323 323 321 316 315 317 315 315
294 290 283 280 281 277 288 284 285 292 296 297 296 298 300 303 322 325 322 327 326 327 323 325 325 322 336 338 334 342 343 342 339 337 336 328 325 323 321 325 325 321 318 315 314 313 314 315 314
294 290 283 276 278 280 288 282 287 296 299 300 302 299 300 301 321 322 322 320 324 328 329 334 335 340 340 339 336 343 342 340 337 336 334 327 323 323 323 320 319 316 316 314 314 312 314 313 313
293 288 294 285 287 282 283 289 293 296 297 299 300 301 299 301 321 320 321 322 324 329 339 343 342 342 339 338 341 339 338 335 334 330 328 325 323 320 318 317 316 316 316 314 312 312 312 311 310
296 298 288 287 281 280 286 287 286 296 301 304 299 299 299 300 309 324 321 322 333 339 343 342 343 340 338 340 340 337 336 334 329 327 325 322 319 317 315 314 314 313 312 312 308 307 310 307 307
293 293 293 290 288 284 281 286 297 299 302 304 307 308 302 299 302 333 333 335 339 341 341 341 340 339 338 342 338 332 329 326 325 322 320 318 316 315 314 313 311 309 307 306 305 305 307 306 306
298 296 295 288 286 287 287 288 300 301 303 306 306 310 310 300 306 331 334 335 337 339 338 338 340 338 339 333 328 324 322 322 320 319 315 315 313 313 311 310 307 304 302 301 301 302 303 304 303
Wind_Speed
8 7 1 4 4 4 5 9 5 14 4 3 5 5 10 4 8 6 10 10 11 12 10 11 16 18 18 18 17 19 18 17 16 16 16 15 15 15 14 13 13 13 14 12 10 8 5 4 2
4 5 3 2 5 2 7 8 17 14 5 6 7 2 6 2 3 5 5 23 16 9 12 9 16 18 19 18 17 18 19 18 16 16 15 15 15 14 13 12 12 12 13 10 8 6 3 1 2
4 2 4 4 5 9 7 6 15 17 5 5 3 3 2 4 11 8 16 23 16 11 13 12 16 19 19 19 17 18 19 19 18 16 14 14 14 13 11 11 10 11 11 9 7 4 1 2 5
2 4 4 3 15 8 7 4 5 13 1 8 4 3 4 12 15 17 24 27 26 14 13 19 18 19 20 19 17 18 18 18 18 17 15 14 14 12 10 9 9 9 9 7 5 3 3 5 7
3 3 2 6 12 6 7 6 7 13 9 11 3 8 4 7 7 14 22 29 31 18 15 19 19 19 21 20 18 17 17 17 16 17 16 15 13 11 10 9 8 8 8 6 5 5 6 6 7
3 2 1 10 13 3 6 10 9 15 21 12 2 3 3 4 3 12 13 15 17 27 17 16 19 20 20 21 19 18 16 15 15 15 15 14 13 10 9 8 7 7 6 6 6 6 8 7 9
4 3 5 5 6 6 5 7 8 13 19 10 4 7 4 8 5 12 16 15 20 18 19 13 14 17 21 19 20 18 17 16 14 14 13 13 13 11 9 8 7 7 7 7 7 8 8 9 10
4 4 4 4 3 8 5 9 6 6 19 11 9 5 6 14 13 14 17 13 17 15 17 16 13 13 13 14 20 19 17 16 14 13 12 11 11 10 9 8 8 8 9 8 7 8 8 10 11
2 2 4 5 3 7 10 10 18 10 12 17 11 20 14 23 19 15 17 14 13 13 15 17 17 15 9 10 14 18 19 17 15 13 13 9 4 6 8 8 9 10 9 9 8 8 8 9 11
4 3 7 6 6 12 15 17 20 15 21 16 18 12 23 28 24 21 20 19 18 18 17 17 18 17 11 10 11 10 11 8 7 6 7 5 5 5 7 8 10 9 9 10 6 8 8 6 4
5 9 9 13 13 12 18 20 20 18 19 6 15 14 23 28 21 24 18 18 21 20 15 16 17 15 14 10 7 6 5 5 5 7 6 5 4 4 4 2 2 2 7 2 2 3 3 3 2
6 9 10 12 16 14 17 18 22 19 16 8 13 11 6 35 25 23 24 21 22 21 18 16 15 15 13 10 7 7 7 5 4 5 6 5 3 4 4 3 4 4 3 2 3 3 3 1 1
4 5 11 12 11 7 13 18 20 30 14 9 13 12 14 21 34 25 27 24 24 23 21 20 16 14 12 13 9 8 7 6 6 5 6 5 5 5 3 4 4 2 4 4 3 3 3 3 3
6 11 14 10 14 9 11 13 8 25 8 6 10 10 10 11 6 18 18 18 23 23 21 20 18 15 14 13 14 10 8 7 6 5 6 8 5 4 4 4 2 2 3 4 4 4 4 4 3
10 11 11 13 6 8 12 13 21 14 5 6 10 8 8 9 6 9 20 24 23 23 23 21 20 16 15 15 14 11 10 9 8 8 9 9 7 6 6 4 5 5 3 6 5 4 4 5 3
8 5 6 2 7 8 4 10 20 14 7 7 10 9 7 9 10 16 19 24 22 24 26 22 18 19 16 13 13 11 11 9 8 8 7 9 7 7 5 4 4 4 4 4 4 3 4 4 4
4 6 9 11 6 7 2 11 14 15 13 9 9 8 8 9 2 7 10 17 20 23 24 23 20 20 16 11 9 10 11 8 7 6 6 8 7 7 6 5 5 5 4 4 3 4 3 3 3
9 14 14 17 5 7 12 19 16 12 15 14 9 12 7 9 7 11 19 10 9 17 22 22 17 17 15 10 8 7 9 8 7 7 7 8 5 8 7 5 6 5 5 4 4 4 4 3 2
11 16 17 14 8 5 16 17 20 14 16 16 11 14 8 10 9 13 10 12 5 10 17 20 20 17 13 11 10 8 8 8 4 7 9 8 7 7 8 5 5 4 5 4 3 3 4 5 4
12 18 24 17 6 5 15 21 18 14 18 19 15 17 9 6 6 7 11 3 14 3 5 7 16 15 13 10 9 7 7 4 4 3 5 7 8 7 7 8 6 6 5 6 4 3 2 2 4
10 11 16 18 11 11 12 19 20 16 15 18 17 17 12 10 9 7 18 15 17 10 6 10 10 11 12 9 7 4 5 5 4 4 6 4 9 8 9 8 7 7 5 5 3 4 5 3 3
14 11 18 18 8 10 5 14 8 7 17 16 16 13 12 10 10 8 9 10 14 19 2 5 10 14 7 12 9 12 4 6 2 7 6 5 6 8 9 9 8 7 5 6 4 4 4 4 3
15 13 14 16 11 4 13 5 7 9 13 18 15 14 10 10 15 14 11 15 14 16 26 9 13 15 17 10 11 10 9 8 7 7 11 9 7 9 10 8 9 7 6 6 6 6 6 4 4
2 6 6 5 4 9 16 10 8 9 16 9 10 13 12 9 15 18 17 16 15 16 21 24 17 21 19 8 11 11 14 13 10 9 9 7 6 6 9 9 8 7 7 7 5 6 7 5 5
4 3 3 3 3 6 2 9 15 5 9 10 9 9 11 11 15 16 18 13 15 20 18 20 24 25 22 11 11 14 14 16 15 12 9 10 7 6 8 8 7 7 7 6 6 7 6 4 4
4 3 3 6 3 4 4 7 10 11 19 15 15 8 9 10 15 19 21 20 18 19 22 20 22 22 14 14 12 11 11 9 9 9 9 8 8 7 7 8 9 8 7 6 6 4 4 5 4
4 5 3 5 3 4 4 7 10 7 9 9 9 6 10 8 17 19 20 20 18 20 22 21 18 14 13 13 13 12 10 11 11 12 11 9 10 9 9 9 9 7 8 7 6 4 6 6 5
4 6 2 2 4 4 4 3 3 14 17 16 13 8 9 7 10 18 18 18 16 16 16 18 18 17 12 14 13 12 12 13 14 13 13 11 11 11 11 9 9 9 8 6 7 6 5 6 2
2 2 1 4 2 4 6 3 6 12 15 18 16 14 11 8 9 19 20 16 15 16 15 15 15 17 16 15 14 14 13 15 14 13 12 13 12 11 11 10 10 10 8 7 7 6 6 5 5
4 3 2 3 3 3 4 6 14 12 16 17 19 16 13 8 12 16 15 16 14 17 17 16 14 15 16 15 16 15 15 15 14 14 14 13 13 11 12 11 11 9 8 7 6 6 5 5 7
Wind_Direction
334 304 231 40 67 66 237 248 264 276 341 310 112 156 153 90 179 183 153 104 133 145 157 162 151 138 133 133 133 125 120 117 115 115 115 115 114 116 119 121 122 122 120 120 115 111 103 84 42
328 306 52 79 114 211 244 214 250 247 236 26 38 61 31 142 117 154 140 145 147 163 146 167 156 141 137 138 138 132 128 128 126 123 123 124 123 123 128 129 129 128 126 125 123 118 109 66 315
303 242 100 151 189 208 237 204 233 255 251 226 70 352 116 199 139 151 128 129 137 153 150 165 160 145 142 142 142 137 135 136 134 130 130 129 127 130 137 136 133 135 133 134 133 130 146 261 274
344 16 355 181 232 255 220 261 273 310 186 242 134 163 200 204 175 178 157 155 142 150 153 167 161 150 146 144 145 142 139 140 139 140 140 138 138 140 143 142 142 143 143 142 143 170 228 257 283
45 71 240 244 249 253 272 265 285 288 287 258 120 232 204 201 234 174 175 161 142 147 158 163 161 155 148 145 146 143 143 145 146 145 145 145 144 148 147 146 152 153 151 161 179 214 245 263 281
20 101 153 242 254 273 273 266 270 272 279 286 129 107 201 274 212 180 155 154 143 142 154 151 159 154 152 149 148 146 146 147 148 146 147 148 148 154 154 157 169 161 172 186 205 234 259 277 286
135 95 229 232 266 281 259 271 252 273 290 311 240 160 226 168 200 152 146 146 134 139 141 149 156 159 155 153 149 148 148 150 153 151 153 155 153 158 162 176 179 184 198 211 225 243 270 285 293
141 119 251 251 231 277 262 309 302 279 288 333 351 192 215 198 171 155 132 137 133 144 141 154 152 161 158 156 152 149 151 152 153 153 157 163 157 165 171 187 201 207 215 226 237 259 274 293 298
101 333 247 257 268 271 302 306 300 295 296 326 312 285 206 145 157 150 134 137 141 149 153 156 161 165 159 156 157 149 154 154 157 160 164 161 160 176 194 193 214 224 229 237 245 265 282 301 308
145 184 241 224 280 290 288 294 296 310 312 321 319 322 143 149 163 162 157 153 161 163 163 161 162 163 158 157 153 148 152 155 163 163 166 164 169 190 208 209 220 234 243 251 264 281 291 306 316
223 244 268 272 264 264 282 285 288 290 292 317 323 337 148 156 163 169 164 166 169 161 162 166 161 157 158 151 155 148 143 155 171 168 168 160 169 217 236 227 242 223 260 296 345 290 276 301 316
303 271 252 268 262 266 265 268 272 274 275 260 283 278 237 163 170 173 165 174 166 167 163 164 163 162 161 151 161 154 153 162 171 181 162 156 182 216 230 228 228 222 262 264 250 270 220 288 48
282 305 309 293 286 266 273 274 273 271 272 252 270 286 283 240 169 180 177 170 161 165 166 164 166 167 160 159 157 159 163 174 179 173 174 169 193 209 193 218 239 180 233 219 195 120 93 75 40
298 310 307 302 301 286 277 281 277 277 271 239 276 284 288 190 267 172 173 177 172 162 165 161 167 169 167 169 163 169 167 173 170 173 186 188 197 208 168 208 121 161 157 118 124 111 104 70 50
300 308 307 284 276 282 284 280 270 289 266 229 261 257 268 239 201 256 192 181 180 167 160 164 166 168 174 173 169 167 176 173 176 187 189 187 183 187 177 151 156 170 132 102 98 98 85 70 28
295 307 292 269 285 267 205 279 284 287 276 253 262 264 232 243 210 216 228 189 181 161 162 164 167 172 174 180 179 174 175 174 180 189 179 187 173 163 130 137 116 123 112 115 102 97 79 67 41
326 258 267 289 265 279 38 284 284 327 294 261 261 268 258 255 273 164 241 223 186 170 159 162 167 174 171 176 187 180 162 170 185 186 179 168 174 149 133 126 123 113 105 108 106 65 90 56 9
268 290 289 288 289 320 308 290 289 297 299 299 244 261 262 266 251 142 180 213 199 181 160 157 159 171 172 164 180 190 163 179 175 177 178 169 146 146 128 118 116 123 108 91 68 94 52 71 348
260 275 274 288 282 313 283 284 289 300 293 290 288 262 237 256 264 144 168 195 120 173 163 159 156 169 168 169 170 177 173 150 145 164 167 160 146 138 128 110 114 113 98 103 103 90 73 30 5
295 297 282 287 292 293 281 283 284 280 279 281 270 261 225 233 234 158 119 170 94 48 146 149 159 155 169 165 161 163 163 112 117 139 103 131 138 132 122 126 115 109 103 79 71 98 102 68 26
241 261 280 283 295 256 281 283 284 266 273 277 265 249 225 192 210 179 150 200 133 104 37 32 351 175 158 151 123 89 96 82 90 100 118 129 133 123 121 117 125 104 105 99 102 91 106 103 30
260 261 250 263 277 264 176 271 259 271 270 275 269 250 214 180 186 197 167 173 167 144 61 23 332 304 167 154 148 157 138 129 104 122 103 84 90 103 99 95 96 103 103 104 85 65 82 92 60
240 246 265 258 237 269 262 248 252 219 255 260 261 242 211 183 175 184 185 179 153 170 144 217 267 288 277 150 156 139 125 108 110 102 100 98 79 86 91 99 99 104 107 92 87 79 75 71 93
255 229 235 259 235 246 245 197 259 233 232 256 247 223 204 173 179 184 177 185 157 164 174 180 170 257 263 194 133 132 125 124 122 119 119 110 97 93 93 95 101 105 97 95 96 81 76 86 77
77 48 283 269 230 244 269 187 246 247 262 249 271 244 215 151 169 172 165 181 162 172 164 163 175 208 224 168 135 133 134 139 142 145 139 123 114 98 94 108 108 90 90 90 90 82 77 66 81
78 149 262 288 271 301 272 241 253 228 252 257 261 261 225 152 169 173 179 173 179 177 168 175 187 195 173 156 125 126 135 140 139 136 121 113 113 108 111 100 94 94 98 100 83 75 81 74 65
143 212 196 260 234 272 231 277 307 246 284 265 261 265 234 171 177 179 184 177 174 173 181 179 170 174 165 140 128 130 124 125 126 110 111 117 118 107 99 92 89 88 84 75 72 70 61 52 41
170 142 262 225 292 288 286 266 53 7 350 334 314 273 242 187 161 183 189 188 173 170 168 173 170 167 146 128 128 137 138 129 115 121 121 119 108 111 105 99 87 77 68 72 69 58 54 64 23
159 215 249 286 290 333 314 333 14 3 349 336 325 295 275 198 160 176 176 185 167 162 165 163 162 156 146 135 130 119 110 111 117 115 117 115 115 109 102 95 86 77 65 50 59 64 49 49 40
103 311 246 282 353 256 229 274 19 346 346 345 327 308 261 179 165 181 162 158 169 162 153 165 159 152 133 121 116 112 117 118 118 122 116 111 109 104 97 92 83 76 68 58 64 62 46 49 54